• In Netherlands
  • List of Countries
  • For 7 days
  • Water Temperature
  • Satellite Maps
  • Weather Map
  • Weather Widgets
  • user-avatar
    Login

    Hourly Weather Byala

    Today, 28 May, Sunday

    Time Temperature Precipitation Wind Pressure Humidity
    00:00 +13°C° 0.1 mm 4 mps 753 mmHg 95%
    01:00 +13°C° 0.1 mm 4 mps 753 mmHg 95%
    02:00 +13°C° 0.1 mm 5 mps 753 mmHg 94%
    03:00 +13°C° 0.1 mm 5 mps 753 mmHg 94%
    04:00 +13°C° 0.1 mm 5 mps 753 mmHg 94%
    05:00 +13°C° 0.1 mm 5 mps 753 mmHg 94%
    06:00 +13°C° 0 mm 6 mps 753 mmHg 92%
    07:00 +14°C° 0 mm 6 mps 754 mmHg 90%
    08:00 +15°C° 0 mm 6 mps 754 mmHg 88%
    09:00 +16°C° 0.1 mm 6 mps 754 mmHg 84%
    10:00 +17°C° 0.1 mm 6 mps 755 mmHg 80%
    11:00 +19°C° 0.1 mm 6 mps 755 mmHg 77%
    12:00 +19°C° 0.3 mm 6 mps 755 mmHg 76%
    13:00 +19°C° 0.3 mm 6 mps 755 mmHg 76%
    14:00 +20°C° 0.3 mm 6 mps 755 mmHg 76%
    15:00 +20°C° 0.1 mm 6 mps 755 mmHg 75%
    16:00 +20°C° 0.1 mm 6 mps 755 mmHg 74%
    17:00 +20°C° 0.1 mm 6 mps 755 mmHg 73%
    18:00 +17°C° 0 mm 5 mps 755 mmHg 78%
    19:00 +15°C° 0 mm 5 mps 755 mmHg 83%
    20:00 +13°C° 0 mm 4 mps 755 mmHg 88%
    21:00 +13°C° 0 mm 4 mps 755 mmHg 87%
    22:00 +12°C° 0 mm 4 mps 756 mmHg 87%
    23:00 +12°C° 0 mm 3 mps 756 mmHg 86%

    Tomorrow, 29 May, Monday

    Time Temperature Precipitation Wind Pressure Humidity
    00:00 +11°C° 0 mm 4 mps 756 mmHg 85%
    01:00 +11°C° 0 mm 4 mps 755 mmHg 84%
    02:00 +11°C° 0 mm 4 mps 755 mmHg 83%
    03:00 +11°C° 0 mm 4 mps 755 mmHg 83%
    04:00 +10°C° 0 mm 5 mps 755 mmHg 82%
    05:00 +10°C° 0 mm 5 mps 755 mmHg 82%
    06:00 +13°C° 0 mm 5 mps 755 mmHg 78%
    07:00 +15°C° 0 mm 6 mps 755 mmHg 74%
    08:00 +19°C° 0 mm 6 mps 755 mmHg 70%
    09:00 +20°C° 0 mm 6 mps 755 mmHg 66%
    10:00 +21°C° 0 mm 6 mps 755 mmHg 63%
    11:00 +22°C° 0 mm 6 mps 755 mmHg 59%
    12:00 +22°C° 0 mm 6 mps 755 mmHg 59%
    13:00 +22°C° 0 mm 5 mps 754 mmHg 59%
    14:00 +22°C° 0 mm 5 mps 754 mmHg 58%
    15:00 +22°C° 0 mm 5 mps 754 mmHg 60%
    16:00 +22°C° 0 mm 5 mps 753 mmHg 61%
    17:00 +21°C° 0 mm 5 mps 753 mmHg 62%
    18:00 +19°C° 0 mm 4 mps 753 mmHg 70%
    19:00 +15°C° 0 mm 4 mps 753 mmHg 79%
    20:00 +13°C° 0 mm 3 mps 754 mmHg 87%
    21:00 +13°C° 0 mm 2 mps 754 mmHg 88%
    22:00 +12°C° 0 mm 2 mps 754 mmHg 89%
    23:00 +10°C° 0 mm 1 mps 753 mmHg 90%

    Day after tomorrow, 30 May, Tuesday

    Time Temperature Precipitation Wind Pressure Humidity
    00:00 +9°C° 0 mm 2 mps 753 mmHg 89%
    01:00 +9°C° 0 mm 2 mps 753 mmHg 88%
    02:00 +9°C° 0 mm 2 mps 753 mmHg 87%
    03:00 +9°C° 0 mm 2 mps 753 mmHg 86%
    04:00 +9°C° 0 mm 2 mps 753 mmHg 85%
    05:00 +9°C° 0 mm 2 mps 752 mmHg 85%
    06:00 +13°C° 0 mm 1 mps 753 mmHg 77%
    07:00 +16°C° 0 mm 1 mps 753 mmHg 68%
    08:00 +21°C° 0 mm 1 mps 753 mmHg 60%
    09:00 +22°C° 0 mm 1 mps 753 mmHg 56%
    10:00 +23°C° 0 mm 1 mps 753 mmHg 53%
    11:00 +24°C° 0 mm 1 mps 753 mmHg 49%
    12:00 +24°C° 0 mm 1 mps 753 mmHg 48%
    13:00 +25°C° 0 mm 2 mps 753 mmHg 47%
    14:00 +25°C° 0 mm 2 mps 753 mmHg 46%
    15:00 +25°C° 0 mm 2 mps 752 mmHg 49%
    16:00 +24°C° 0 mm 2 mps 752 mmHg 53%
    17:00 +23°C° 0 mm 2 mps 752 mmHg 56%
    18:00 +20°C° 0 mm 2 mps 752 mmHg 64%
    19:00 +17°C° 0 mm 2 mps 752 mmHg 72%
    20:00 +15°C° 0 mm 2 mps 752 mmHg 81%
    21:00 +14°C° 0 mm 2 mps 752 mmHg 81%
    22:00 +14°C° 0 mm 1 mps 753 mmHg 80%
    23:00 +13°C° 0 mm 1 mps 753 mmHg 80%

    31 May, Wednesday

    Time Temperature Precipitation Wind Pressure Humidity
    00:00 +13°C° 0 mm 1 mps 753 mmHg 80%
    01:00 +13°C° 0 mm 1 mps 752 mmHg 80%
    02:00 +13°C° 0 mm 1 mps 752 mmHg 80%
    03:00 +13°C° 0 mm 1 mps 752 mmHg 81%
    04:00 +13°C° 0 mm 1 mps 752 mmHg 82%
    05:00 +13°C° 0 mm 1 mps 752 mmHg 82%
    06:00 +16°C° 0 mm 1 mps 752 mmHg 75%
    07:00 +18°C° 0 mm 2 mps 752 mmHg 68%
    08:00 +21°C° 0 mm 2 mps 753 mmHg 61%
    09:00 +23°C° 0 mm 2 mps 753 mmHg 58%
    10:00 +25°C° 0 mm 2 mps 753 mmHg 54%
    11:00 +26°C° 0 mm 2 mps 753 mmHg 51%
    12:00 +26°C° 0 mm 2 mps 752 mmHg 49%
    13:00 +27°C° 0 mm 3 mps 752 mmHg 48%
    14:00 +27°C° 0 mm 3 mps 752 mmHg 47%
    15:00 +27°C° 0 mm 3 mps 751 mmHg 49%
    16:00 +26°C° 0 mm 3 mps 751 mmHg 51%
    17:00 +26°C° 0 mm 3 mps 751 mmHg 53%
    18:00 +24°C° 0 mm 3 mps 751 mmHg 62%
    19:00 +20°C° 0 mm 4 mps 751 mmHg 71%
    20:00 +18°C° 0 mm 4 mps 751 mmHg 80%
    21:00 +17°C° 0 mm 4 mps 751 mmHg 81%
    22:00 +17°C° 0 mm 3 mps 751 mmHg 81%
    23:00 +16°C° 0 mm 3 mps 751 mmHg 82%

    1 June, Thursday

    Time Temperature Precipitation Wind Pressure Humidity
    00:00 +16°C° 0 mm 3 mps 751 mmHg 80%
    01:00 +16°C° 0 mm 3 mps 750 mmHg 79%
    02:00 +16°C° 0 mm 3 mps 750 mmHg 78%
    03:00 +16°C° 0 mm 3 mps 750 mmHg 77%
    04:00 +16°C° 0 mm 3 mps 750 mmHg 77%
    05:00 +16°C° 0 mm 3 mps 750 mmHg 76%
    06:00 +18°C° 0 mm 3 mps 750 mmHg 71%
    07:00 +21°C° 0 mm 3 mps 750 mmHg 66%
    08:00 +24°C° 0 mm 3 mps 750 mmHg 61%
    09:00 +26°C° 0 mm 3 mps 750 mmHg 57%
    10:00 +27°C° 0 mm 3 mps 750 mmHg 53%
    11:00 +28°C° 0 mm 3 mps 750 mmHg 48%
    12:00 +29°C° 0 mm 4 mps 750 mmHg 48%
    13:00 +29°C° 0 mm 4 mps 749 mmHg 48%
    14:00 +29°C° 0 mm 4 mps 749 mmHg 48%
    15:00 +29°C° 0.3 mm 4 mps 749 mmHg 50%
    16:00 +29°C° 0.3 mm 4 mps 748 mmHg 53%
    17:00 +29°C° 0.3 mm 4 mps 748 mmHg 56%
    18:00 +27°C° 0.3 mm 4 mps 748 mmHg 63%
    19:00 +23°C° 0.3 mm 4 mps 748 mmHg 71%
    20:00 +21°C° 0.3 mm 4 mps 748 mmHg 79%
    21:00 +21°C° 0.4 mm 4 mps 748 mmHg 80%
    22:00 +20°C° 0.4 mm 3 mps 749 mmHg 82%
    23:00 +20°C° 0.4 mm 3 mps 749 mmHg 83%

    2 June, Friday

    Time Temperature Precipitation Wind Pressure Humidity
    00:00 +20°C° 0.3 mm 3 mps 749 mmHg 84%
    01:00 +19°C° 0.3 mm 3 mps 749 mmHg 85%
    02:00 +19°C° 0.3 mm 3 mps 749 mmHg 86%
    03:00 +19°C° 0.7 mm 3 mps 749 mmHg 87%
    04:00 +19°C° 0.7 mm 3 mps 749 mmHg 88%
    05:00 +19°C° 0.7 mm 4 mps 749 mmHg 89%
    06:00 +20°C° 0.6 mm 4 mps 750 mmHg 87%
    07:00 +21°C° 0.6 mm 5 mps 750 mmHg 84%
    08:00 +22°C° 0.6 mm 6 mps 750 mmHg 82%
    09:00 +22°C° 0.3 mm 6 mps 751 mmHg 77%
    10:00 +23°C° 0.3 mm 6 mps 751 mmHg 72%
    11:00 +23°C° 0.3 mm 6 mps 751 mmHg 67%
    12:00 +23°C° 0.1 mm 6 mps 751 mmHg 65%
    13:00 +23°C° 0.1 mm 6 mps 751 mmHg 63%
    14:00 +23°C° 0.1 mm 6 mps 751 mmHg 61%
    15:00 +23°C° 0 mm 5 mps 751 mmHg 63%
    16:00 +22°C° 0 mm 5 mps 752 mmHg 65%
    17:00 +21°C° 0 mm 5 mps 752 mmHg 67%
    18:00 +20°C° 0 mm 4 mps 752 mmHg 72%
    19:00 +18°C° 0 mm 3 mps 752 mmHg 77%
    20:00 +17°C° 0 mm 3 mps 752 mmHg 82%
    21:00 +16°C° 0 mm 2 mps 752 mmHg 84%
    22:00 +16°C° 0 mm 2 mps 752 mmHg 86%
    23:00 +15°C° 0 mm 1 mps 752 mmHg 88%
    Show more